This demonstration page uses our WeatherBlox Daily Observations layout. Learn more.

Left ArrowRight Arrow

Hourly Observations for August 14, 2022

Temp ( °F °C ) Dew Point ( °F °C ) Humidity (%) Winds ( mph kmh ) Pressure ( in mb ) Visibility ( mi km ) Precip ( " mm )
12:54 am 00:54 Clear 74 23.3 66 18.9 76 76 NE 6 9 29.98 1015 10 16 0.00 0.00
1:54 am 01:54 Clear 72 22.2 66 18.9 82 82 NE 6 9 29.98 1015 10 16 0.00 0.00
2:54 am 02:54 Clear 74 23.3 65 18.3 74 74 E 6 9 29.97 1015 10 16 0.00 0.00
3:54 am 03:54 Mostly Clear 73 22.8 64 17.8 73 73 E 7 11 29.98 1015 10 16 0.00 0.00
4:54 am 04:54 Mostly Clear 72 22.2 63 17.2 73 73 E 9 15 29.98 1015 10 16 0.00 0.00
5:54 am 05:54 Clear 70 21.1 62 16.7 76 76 E 7 11 29.99 1016 10 16 0.00 0.00
6:54 am 06:54 Sunny 69 20.6 62 16.7 78 78 E 8 13 29.99 1016 10 16 0.00 0.00
7:54 am 07:54 Partly Cloudy 71 21.7 62 16.7 73 73 ENE 7 11 30.01 1016 10 16 0.00 0.00
8:54 am 08:54 Sunny 72 22.2 61 16.1 68 68 E 9 15 30.02 1017 10 16 0.00 0.00
9:54 am 09:54 Sunny 75 23.9 62 16.7 64 64 E 7 11 30.02 1017 10 16 0.00 0.00
10:54 am 10:54 Sunny 79 26.1 62 16.7 56 56 ENE 13 20 30.01 1016 10 16 0.00 0.00
11:54 am 11:54 Sunny 81 27.2 63 17.2 54 54 NE 7 11 30.00 1016 10 16 0.00 0.00
12:54 pm 12:54 Sunny 84 28.9 61 16.1 46 46 ESE 7 11 29.98 1015 10 16 0.00 0.00
1:54 pm 13:54 Sunny 86 30 62 16.7 45 45 SE 10 17 29.97 1015 10 16 0.00 0.00
2:54 pm 14:54 Sunny 88 31.1 62 16.7 42 42 ENE 10 17 29.96 1015 10 16 0.00 0.00
3:54 pm 15:54 Sunny 88 31.1 62 16.7 42 42 ENE 9 15 29.95 1014 10 16 0.00 0.00
4:54 pm 16:54 Sunny 89 31.7 63 17.2 42 42 E 9 15 29.95 1014 10 16 0.00 0.00
5:54 pm 17:54 Mostly Sunny 87 30.6 63 17.2 45 45 ENE 9 15 29.95 1014 10 16 0.00 0.00
6:54 pm 18:54 Sunny 86 30 64 17.8 48 48 ENE 15 24 29.95 1014 10 16 0.00 0.00
7:54 pm 19:54 Sunny 80 26.7 64 17.8 58 58 ENE 15 24 29.95 1014 10 16 0.00 0.00
8:54 pm 20:54 Clear 78 25.6 63 17.2 60 60 E 13 20 29.95 1014 10 16 0.00 0.00
9:54 pm 21:54 Clear 76 24.4 62 16.7 62 62 E 14 22 29.96 1015 10 16 0.00 0.00
10:54 pm 22:54 Clear 75 23.9 61 16.1 62 62 ESE 8 13 29.95 1014 10 16 0.00 0.00
11:54 pm 23:54 Clear 75 23.9 61 16.1 62 62 E 7 11 29.96 1014 10 16 0.00 0.00

Powered by AerisWeather